When you browse on this site, cookies collect data to enhance your experience and personalize the content and advertising you see.
Visit our Privacy Policy to learn more. By continuing to use the site, you agree to this use of cookies and data.
  • In Deutschland
  • Länderverzeichnis
  • Für 7 Tage
  • Wassertemperatur
  • Satellitenkarten
  • Wetterkarte
  • Widgets
  • user-avatar
    Anmelden

    Stündliche Wetter Gweru

    Heute, 20 Januar, Sonntag

    Zeit Temperatur Niederschläge Wind Luftdruck Luftfeuchtigkeit
    00:00 +20°C° 0.1 mm 4 m/S 644 mmHg 88%
    01:00 +20°C° 0.1 mm 5 m/S 644 mmHg 89%
    02:00 +20°C° 0 mm 5 m/S 644 mmHg 92%
    03:00 +19°C° 0.1 mm 6 m/S 644 mmHg 91%
    04:00 +19°C° 0.1 mm 6 m/S 644 mmHg 90%
    05:00 +19°C° 0.1 mm 6 m/S 644 mmHg 90%
    06:00 +18°C° 0.1 mm 7 m/S 645 mmHg 88%
    07:00 +18°C° 0.1 mm 7 m/S 645 mmHg 87%
    08:00 +18°C° 0 mm 7 m/S 646 mmHg 87%
    09:00 +18°C° 0.2 mm 7 m/S 646 mmHg 87%
    10:00 +19°C° 0.2 mm 6 m/S 646 mmHg 87%
    11:00 +19°C° 0.2 mm 6 m/S 646 mmHg 86%
    12:00 +19°C° 0.1 mm 6 m/S 645 mmHg 85%
    13:00 +19°C° 0.1 mm 6 m/S 645 mmHg 84%
    14:00 +19°C° 0 mm 5 m/S 645 mmHg 81%
    15:00 +20°C° 0 mm 5 m/S 645 mmHg 79%
    16:00 +20°C° 0 mm 5 m/S 645 mmHg 78%
    17:00 +20°C° 0 mm 5 m/S 645 mmHg 76%
    18:00 +19°C° 0 mm 5 m/S 645 mmHg 80%
    19:00 +17°C° 0 mm 5 m/S 645 mmHg 83%
    20:00 +16°C° 0 mm 5 m/S 646 mmHg 87%
    21:00 +16°C° 0.1 mm 5 m/S 646 mmHg 87%
    22:00 +16°C° 0.1 mm 6 m/S 646 mmHg 86%
    23:00 +16°C° 0.1 mm 6 m/S 646 mmHg 86%

    Morgen, 21 Januar, Montag

    Zeit Temperatur Niederschläge Wind Luftdruck Luftfeuchtigkeit
    00:00 +15°C° 0 mm 6 m/S 646 mmHg 86%
    01:00 +15°C° 0 mm 6 m/S 646 mmHg 86%
    02:00 +15°C° 0 mm 6 m/S 646 mmHg 86%
    03:00 +14°C° 0 mm 6 m/S 646 mmHg 86%
    04:00 +14°C° 0 mm 6 m/S 645 mmHg 87%
    05:00 +13°C° 0 mm 6 m/S 645 mmHg 87%
    06:00 +13°C° 0 mm 6 m/S 646 mmHg 86%
    07:00 +14°C° 0 mm 6 m/S 646 mmHg 85%
    08:00 +14°C° 0 mm 6 m/S 646 mmHg 84%
    09:00 +14°C° 0 mm 5 m/S 646 mmHg 83%
    10:00 +15°C° 0 mm 5 m/S 646 mmHg 83%
    11:00 +15°C° 0 mm 4 m/S 646 mmHg 82%
    12:00 +17°C° 0 mm 5 m/S 646 mmHg 76%
    13:00 +19°C° 0 mm 5 m/S 646 mmHg 69%
    14:00 +21°C° 0 mm 5 m/S 646 mmHg 62%
    15:00 +21°C° 0 mm 5 m/S 645 mmHg 64%
    16:00 +21°C° 0 mm 5 m/S 645 mmHg 66%
    17:00 +20°C° 0 mm 5 m/S 644 mmHg 68%
    18:00 +19°C° 0 mm 4 m/S 644 mmHg 74%
    19:00 +18°C° 0 mm 3 m/S 644 mmHg 80%
    20:00 +16°C° 0 mm 3 m/S 644 mmHg 86%
    21:00 +16°C° 0 mm 3 m/S 644 mmHg 87%
    22:00 +16°C° 0 mm 3 m/S 645 mmHg 88%
    23:00 +16°C° 0 mm 3 m/S 645 mmHg 90%

    übermorgen, 22 Januar, Dienstag

    Zeit Temperatur Niederschläge Wind Luftdruck Luftfeuchtigkeit
    00:00 +16°C° 0 mm 3 m/S 644 mmHg 91%
    01:00 +14°C° 0 mm 3 m/S 644 mmHg 92%
    02:00 +15°C° 0 mm 2 m/S 643 mmHg 94%
    03:00 +15°C° 0 mm 2 m/S 643 mmHg 95%
    04:00 +15°C° 0 mm 2 m/S 643 mmHg 95%
    05:00 +15°C° 0 mm 2 m/S 643 mmHg 96%
    06:00 +16°C° 0 mm 3 m/S 643 mmHg 90%
    07:00 +17°C° 0 mm 4 m/S 644 mmHg 85%
    08:00 +18°C° 0 mm 4 m/S 644 mmHg 79%
    09:00 +20°C° 0 mm 4 m/S 645 mmHg 73%
    10:00 +22°C° 0 mm 4 m/S 645 mmHg 66%
    11:00 +23°C° 0 mm 4 m/S 645 mmHg 60%
    12:00 +25°C° 0 mm 4 m/S 645 mmHg 57%
    13:00 +26°C° 0 mm 4 m/S 644 mmHg 54%
    14:00 +27°C° 0 mm 4 m/S 644 mmHg 51%
    15:00 +26°C° 0 mm 4 m/S 643 mmHg 52%
    16:00 +26°C° 0 mm 4 m/S 643 mmHg 52%
    17:00 +25°C° 0 mm 4 m/S 642 mmHg 53%
    18:00 +24°C° 0 mm 3 m/S 642 mmHg 62%
    19:00 +21°C° 0 mm 3 m/S 642 mmHg 70%
    20:00 +19°C° 0 mm 2 m/S 642 mmHg 78%
    21:00 +18°C° 0 mm 2 m/S 642 mmHg 80%
    22:00 +18°C° 0 mm 2 m/S 642 mmHg 82%
    23:00 +19°C° 0 mm 1 m/S 642 mmHg 84%

    23 Januar, Mittwoch

    Zeit Temperatur Niederschläge Wind Luftdruck Luftfeuchtigkeit
    00:00 +18°C° 0 mm 1 m/S 642 mmHg 85%
    01:00 +18°C° 0 mm 1 m/S 642 mmHg 86%
    02:00 +18°C° 0 mm 1 m/S 641 mmHg 88%
    03:00 +16°C° 0 mm 1 m/S 641 mmHg 90%
    04:00 +16°C° 0 mm 1 m/S 641 mmHg 91%
    05:00 +16°C° 0 mm 1 m/S 641 mmHg 93%
    06:00 +18°C° 0 mm 2 m/S 642 mmHg 86%
    07:00 +19°C° 0 mm 3 m/S 642 mmHg 78%
    08:00 +21°C° 0 mm 4 m/S 643 mmHg 71%
    09:00 +23°C° 0 mm 4 m/S 643 mmHg 63%
    10:00 +25°C° 0 mm 4 m/S 644 mmHg 56%
    11:00 +27°C° 0 mm 4 m/S 644 mmHg 49%
    12:00 +28°C° 0 mm 4 m/S 644 mmHg 45%
    13:00 +29°C° 0 mm 4 m/S 643 mmHg 41%
    14:00 +30°C° 0 mm 4 m/S 643 mmHg 37%
    15:00 +29°C° 0 mm 4 m/S 642 mmHg 37%
    16:00 +29°C° 0 mm 4 m/S 642 mmHg 38%
    17:00 +28°C° 0 mm 4 m/S 641 mmHg 38%
    18:00 +26°C° 0 mm 4 m/S 641 mmHg 44%
    19:00 +24°C° 0 mm 3 m/S 641 mmHg 49%
    20:00 +21°C° 0 mm 3 m/S 642 mmHg 55%
    21:00 +20°C° 0 mm 2 m/S 642 mmHg 57%
    22:00 +19°C° 0 mm 2 m/S 642 mmHg 59%
    23:00 +19°C° 0 mm 2 m/S 642 mmHg 61%

    24 Januar, Donnerstag

    Zeit Temperatur Niederschläge Wind Luftdruck Luftfeuchtigkeit
    00:00 +19°C° 0 mm 1 m/S 641 mmHg 64%
    01:00 +19°C° 0 mm 1 m/S 641 mmHg 67%
    02:00 +18°C° 0 mm 1 m/S 641 mmHg 70%
    03:00 +18°C° 0 mm 1 m/S 641 mmHg 75%
    04:00 +17°C° 0 mm 2 m/S 641 mmHg 79%
    05:00 +17°C° 0 mm 2 m/S 641 mmHg 83%
    06:00 +18°C° 0 mm 3 m/S 642 mmHg 81%
    07:00 +19°C° 0 mm 4 m/S 643 mmHg 78%
    08:00 +21°C° 0 mm 5 m/S 643 mmHg 76%
    09:00 +23°C° 0 mm 4 m/S 644 mmHg 68%
    10:00 +26°C° 0 mm 4 m/S 644 mmHg 60%
    11:00 +27°C° 0 mm 4 m/S 645 mmHg 52%
    12:00 +28°C° 0 mm 4 m/S 644 mmHg 50%
    13:00 +29°C° 0 mm 4 m/S 644 mmHg 49%
    14:00 +29°C° 0 mm 5 m/S 643 mmHg 47%
    15:00 +29°C° 0 mm 5 m/S 643 mmHg 49%
    16:00 +28°C° 0 mm 5 m/S 642 mmHg 51%
    17:00 +27°C° 0 mm 5 m/S 642 mmHg 53%
    18:00 +26°C° 0 mm 4 m/S 642 mmHg 58%
    19:00 +23°C° 0 mm 4 m/S 642 mmHg 64%
    20:00 +21°C° 0 mm 3 m/S 643 mmHg 70%
    21:00 +21°C° 0 mm 3 m/S 643 mmHg 75%
    22:00 +20°C° 0 mm 3 m/S 643 mmHg 81%
    23:00 +19°C° 0 mm 3 m/S 643 mmHg 86%

    25 Januar, Freitag

    Zeit Temperatur Niederschläge Wind Luftdruck Luftfeuchtigkeit
    00:00 +19°C° 0 mm 3 m/S 643 mmHg 89%
    01:00 +19°C° 0 mm 3 m/S 643 mmHg 92%
    02:00 +18°C° 0 mm 3 m/S 642 mmHg 95%
    03:00 +18°C° 0 mm 3 m/S 643 mmHg 95%
    04:00 +18°C° 0 mm 3 m/S 643 mmHg 94%
    05:00 +18°C° 0 mm 4 m/S 643 mmHg 93%
    06:00 +19°C° 0 mm 4 m/S 643 mmHg 88%
    07:00 +20°C° 0 mm 4 m/S 644 mmHg 83%
    08:00 +20°C° 0 mm 4 m/S 645 mmHg 77%
    09:00 +22°C° 0 mm 4 m/S 645 mmHg 67%
    10:00 +25°C° 0 mm 3 m/S 645 mmHg 57%
    11:00 +27°C° 0 mm 3 m/S 645 mmHg 47%
    12:00 +28°C° 0 mm 3 m/S 645 mmHg 42%
    13:00 +30°C° 0 mm 3 m/S 645 mmHg 37%
    14:00 +31°C° 0 mm 3 m/S 644 mmHg 32%
    15:00 +30°C° 0 mm 3 m/S 644 mmHg 34%
    16:00 +30°C° 0 mm 3 m/S 643 mmHg 36%
    17:00 +29°C° 0 mm 3 m/S 643 mmHg 38%
    18:00 +27°C° 0 mm 3 m/S 643 mmHg 45%
    19:00 +25°C° 0 mm 3 m/S 643 mmHg 52%
    20:00 +21°C° 0 mm 2 m/S 643 mmHg 58%
    21:00 +21°C° 0 mm 2 m/S 643 mmHg 62%
    22:00 +20°C° 0 mm 2 m/S 643 mmHg 66%
    23:00 +19°C° 0 mm 2 m/S 643 mmHg 70%
    Mehr zeigen